Meeker, CO

2:56 PM MDT on October 18, 2017 (GMT -0600)
Meeker

Weather History for KEEO - September, 2013

Change the Weather History Date:

Tuesday, September 24, 2013

  Actual Average Record
Temperature  
Mean Temperature 52 °F 53 °F  
Max Temperature 69 °F 71 °F 84 °F (2015)
Min Temperature 34 °F 36 °F 27 °F (2000)
Degree Days  
Heating Degree Days 13 12  
Month to date heating degree days 98 173  
Since 1 July heating degree days 117 227  
Cooling Degree Days 0 0  
Month to date cooling degree days 41 0  
Year to date cooling degree days 324 168  
Growing Degree Days 2 (Base 50)    
Moisture  
Dew Point 35 °F    
Average Humidity 58    
Maximum Humidity 92    
Minimum Humidity 23    
Precipitation  
Precipitation 0.00 in 0.07 in 0.30 in (2007)
Month to date precipitation 2.37 1.41  
Year to date precipitation 12.46 11.27  
Sea Level Pressure  
Sea Level Pressure 30.01 in    
Wind  
Wind Speed 6 mph (SSE)    
Max Wind Speed 18 mph    
Max Gust Speed 25 mph    
Visibility 10 miles    
Events      
T = Trace of Precipitation, MM = Missing Value Source: NWS Daily Summary

Daily Weather History Graph

Daily Weather History Graph

Search for Another Location

Airport or City:

Trip Planner

Search our weather history database for the weather conditions in past years. The results will help you decide how hot, cold, wet, or windy it might be!

Date:

Astronomy

Sep. 24, 2013 Rise Set
Actual Time 7:01 AM MDT 7:04 PM MDT
Civil Twilight 6:34 AM MDT 7:31 PM MDT
Nautical Twilight 6:02 AM MDT 8:03 PM MDT
Astronomical Twilight 5:30 AM MDT 8:35 PM MDT
Moon 10:24 PM MDT (9/24) 12:18 PM MDT (9/24)
Length of Visible Light 12h 57m
Length of Day
12h 03m
Waning Gibbous, 72% of the Moon is Illuminated
Sep 24
Waning Gibbous
Sep 26
Last Quarter
Oct 4
New
Oct 11
First Quarter
Oct 18
Full

Hourly Weather History & Observations

Time (MDT) Temp. Windchill Dew Point Humidity Pressure Visibility Wind Dir Wind Speed Gust Speed Precip Events Conditions
12:53 AM 39.9 °F 37.8 °F 36.0 °F 86% 30.13 in 10.0 mi ENE 3.5 mph - N/A   Clear
1:53 AM 39.9 °F 36.7 °F 36.0 °F 86% 30.13 in 10.0 mi ENE 4.6 mph - N/A   Clear
2:53 AM 37.0 °F 33.3 °F 34.0 °F 89% 30.14 in 10.0 mi ENE 4.6 mph - N/A   Clear
3:53 AM 37.0 °F - 35.1 °F 93% 30.12 in 10.0 mi Calm Calm - N/A   Clear
4:53 AM 37.9 °F 34.4 °F 34.0 °F 86% 30.12 in 10.0 mi ENE 4.6 mph - N/A   Clear
5:53 AM 39.0 °F 33.4 °F 34.0 °F 82% 30.12 in 10.0 mi ENE 8.1 mph - N/A   Clear
6:53 AM 36.0 °F 33.3 °F 33.1 °F 89% 30.16 in 10.0 mi ENE 3.5 mph - N/A   Clear
7:53 AM 37.0 °F - 35.1 °F 93% 30.18 in 10.0 mi Calm Calm - N/A   Clear
8:53 AM 46.0 °F - 36.0 °F 68% 30.16 in 10.0 mi Calm Calm - N/A   Clear
9:53 AM 52.0 °F - 37.0 °F 57% 30.13 in 10.0 mi Calm Calm - N/A   Clear
10:53 AM 57.9 °F - 37.0 °F 46% 30.09 in 10.0 mi Calm Calm - N/A   Clear
11:53 AM 62.1 °F - 36.0 °F 38% 30.05 in 10.0 mi South 10.4 mph - N/A   Clear
12:53 PM 64.9 °F - 35.1 °F 33% 30.02 in 10.0 mi SSW 12.7 mph 20.7 mph N/A   Clear
1:53 PM 68.0 °F - 36.0 °F 31% 29.97 in 10.0 mi SSW 15.0 mph 20.7 mph N/A   Clear
2:53 PM 68.0 °F - 34.0 °F 28% 29.94 in 10.0 mi SSW 12.7 mph - N/A   Clear
3:53 PM 69.1 °F - 30.9 °F 24% 29.91 in 10.0 mi SSW 17.3 mph 23.0 mph N/A   Clear
4:53 PM 68.0 °F - 30.0 °F 24% 29.89 in 10.0 mi SSW 12.7 mph - N/A   Clear
5:53 PM 66.0 °F - 30.9 °F 27% 29.87 in 10.0 mi SSW 13.8 mph - N/A   Clear
6:53 PM 60.1 °F - 35.1 °F 39% 29.90 in 10.0 mi WSW 10.4 mph - N/A   Clear
7:53 PM 59.0 °F - 30.9 °F 35% 29.89 in 10.0 mi SSW 4.6 mph - N/A   Clear
8:53 PM 52.0 °F - 37.0 °F 57% 29.88 in 10.0 mi Calm Calm - N/A   Clear
9:53 PM 48.9 °F - 37.0 °F 64% 29.86 in 10.0 mi NNE 5.8 mph - N/A   Clear
10:53 PM 46.0 °F - 37.0 °F 71% 29.84 in 10.0 mi Calm Calm - N/A   Clear
11:53 PM 44.1 °F 40.8 °F 37.0 °F 76% 29.82 in 10.0 mi Variable 5.8 mph - N/A   Clear